Time,TemperatureF,DewpointF,PressureIn,WindDirection,WindDirectionDegrees,WindSpeedMPH,WindSpeedGustMPH,Humidity,HourlyPrecipIn,Conditions,Clouds,dailyrainin,SolarRadiationWatts/m^2,SoftwareType,DateUTC
2013-08-22 00:02:00,61.0,35.0,-100.00,ESE,117,4.0,6.0,37,0.00,,,0.00,0.000000,,2013-08-22 07:02:00,
2013-08-22 00:11:00,61.0,35.0,-100.00,ESE,117,4.0,6.0,37,0.00,,,0.00,0.000000,,2013-08-22 07:11:00,
2013-08-22 00:21:00,61.0,35.0,-100.00,ESE,117,4.0,6.0,37,0.00,,,0.00,0.000000,,2013-08-22 07:21:00,
2013-08-22 00:52:00,60.0,34.0,-100.00,ESE,116,3.0,6.0,37,0.00,,,0.00,0.000000,,2013-08-22 07:52:00,
2013-08-22 01:03:00,60.0,34.0,-100.00,ESE,116,3.0,6.0,37,0.00,,,0.00,0.000000,,2013-08-22 08:03:00,
2013-08-22 01:12:00,60.0,34.0,-100.00,ESE,116,3.0,6.0,37,0.00,,,0.00,0.000000,,2013-08-22 08:12:00,
2013-08-22 01:22:00,60.0,34.0,-100.00,ESE,116,3.0,6.0,37,0.00,,,0.00,0.000000,,2013-08-22 08:22:00,
2013-08-22 01:53:00,61.0,35.0,-100.00,SE,140,0.0,8.0,38,0.00,,,0.00,0.000000,,2013-08-22 08:53:00,
2013-08-22 02:01:00,61.0,35.0,-100.00,SE,140,0.0,8.0,38,0.00,,,0.00,0.000000,,2013-08-22 09:01:00,
2013-08-22 02:11:00,61.0,35.0,-100.00,SE,140,0.0,8.0,38,0.00,,,0.00,0.000000,,2013-08-22 09:11:00,
2013-08-22 02:22:00,61.0,35.0,-100.00,SE,140,0.0,8.0,38,0.00,,,0.00,0.000000,,2013-08-22 09:22:00,
2013-08-22 02:54:00,61.0,35.0,-100.00,ESE,108,3.0,6.0,37,0.00,,,0.00,0.000000,,2013-08-22 09:54:00,
2013-08-22 03:03:00,61.0,35.0,-100.00,ESE,108,3.0,6.0,37,0.00,,,0.00,0.000000,,2013-08-22 10:03:00,
2013-08-22 03:12:00,61.0,35.0,-100.00,ESE,108,3.0,6.0,37,0.00,,,0.00,0.000000,,2013-08-22 10:12:00,
2013-08-22 03:22:00,61.0,35.0,-100.00,ESE,108,3.0,6.0,37,0.00,,,0.00,0.000000,,2013-08-22 10:22:00,
2013-08-22 03:24:00,61.0,34.0,-100.00,ESE,119,4.0,6.0,36,0.00,,,0.00,0.000000,,2013-08-22 10:24:00,
2013-08-22 05:52:00,59.0,32.0,-100.00,SE,131,4.0,5.0,36,0.00,,,-99.99,0.000000,,2013-08-22 12:52:00,
2013-08-22 06:02:00,59.0,32.0,-100.00,SE,131,4.0,5.0,36,0.00,,,-99.99,0.000000,,2013-08-22 13:02:00,
2013-08-22 06:12:00,59.0,32.0,-100.00,SE,131,4.0,5.0,36,0.00,,,-99.99,0.000000,,2013-08-22 13:12:00,
2013-08-22 06:22:00,59.0,32.0,-100.00,SE,131,4.0,5.0,36,0.00,,,-99.99,0.000000,,2013-08-22 13:22:00,
2013-08-22 06:52:00,59.0,31.0,-100.00,SE,125,5.0,6.0,35,0.00,,,0.00,1.000000,,2013-08-22 13:52:00,
2013-08-22 07:01:00,59.0,31.0,-100.00,SE,125,5.0,6.0,35,0.00,,,0.00,1.000000,,2013-08-22 14:01:00,
2013-08-22 07:11:00,59.0,31.0,-100.00,SE,125,5.0,6.0,35,0.00,,,0.00,1.000000,,2013-08-22 14:11:00,
2013-08-22 07:21:00,59.0,31.0,-100.00,SE,125,5.0,6.0,35,0.00,,,0.00,1.000000,,2013-08-22 14:21:00,
2013-08-22 07:52:00,61.0,35.0,-100.00,ESE,117,4.0,5.0,37,0.00,,,0.00,33.000000,,2013-08-22 14:52:00,
2013-08-22 08:01:00,61.0,35.0,-100.00,ESE,117,4.0,5.0,37,0.00,,,0.00,33.000000,,2013-08-22 15:01:00,
2013-08-22 08:11:00,61.0,35.0,-100.00,ESE,117,4.0,5.0,37,0.00,,,0.00,33.000000,,2013-08-22 15:11:00,
2013-08-22 08:22:00,61.0,35.0,-100.00,ESE,117,4.0,5.0,37,0.00,,,0.00,33.000000,,2013-08-22 15:22:00,
2013-08-22 09:54:00,70.0,43.0,-100.00,NNW,345,1.0,5.0,38,-99.99,,,0.00,392.000000,,2013-08-22 16:54:00,
2013-08-22 10:02:00,70.0,43.0,-100.00,NNW,345,1.0,5.0,38,-99.99,,,0.00,392.000000,,2013-08-22 17:02:00,
2013-08-22 10:12:00,70.0,43.0,-100.00,NNW,345,1.0,5.0,38,-99.99,,,0.00,392.000000,,2013-08-22 17:12:00,
2013-08-22 10:23:00,70.0,43.0,-100.00,NNW,345,1.0,5.0,38,-99.99,,,0.00,392.000000,,2013-08-22 17:23:00,
2013-08-22 10:53:00,72.0,43.0,-100.00,NW,320,3.0,5.0,35,0.00,,,0.00,552.000000,,2013-08-22 17:53:00,
2013-08-22 11:02:00,72.0,43.0,-100.00,NW,320,3.0,5.0,35,0.00,,,0.00,552.000000,,2013-08-22 18:02:00,
2013-08-22 11:12:00,72.0,43.0,-100.00,NW,320,3.0,5.0,35,0.00,,,0.00,552.000000,,2013-08-22 18:12:00,
2013-08-22 11:21:00,72.0,43.0,-100.00,NW,320,3.0,5.0,35,0.00,,,0.00,552.000000,,2013-08-22 18:21:00,
2013-08-22 13:52:00,76.0,46.0,-100.00,WNW,296,3.0,9.0,35,-99.99,,,0.00,570.000000,,2013-08-22 20:52:00,
2013-08-22 14:02:00,76.0,46.0,-100.00,WNW,296,3.0,9.0,35,-99.99,,,0.00,570.000000,,2013-08-22 21:02:00,
2013-08-22 14:13:00,76.0,46.0,-100.00,WNW,296,3.0,9.0,35,-99.99,,,0.00,570.000000,,2013-08-22 21:13:00,
2013-08-22 14:22:00,76.0,46.0,-100.00,WNW,296,3.0,9.0,35,-99.99,,,0.00,570.000000,,2013-08-22 21:22:00,
2013-08-22 14:24:00,75.0,47.0,-100.00,NNW,339,2.0,8.0,37,0.00,,,0.00,428.000000,,2013-08-22 21:24:00,
2013-08-22 14:54:00,75.0,47.0,-100.00,NNW,339,2.0,8.0,37,0.00,,,0.00,428.000000,,2013-08-22 21:54:00,
2013-08-22 15:05:00,75.0,47.0,-100.00,NNW,339,2.0,8.0,37,0.00,,,0.00,428.000000,,2013-08-22 22:05:00,
2013-08-22 15:13:00,75.0,47.0,-100.00,NNW,339,2.0,8.0,37,0.00,,,0.00,428.000000,,2013-08-22 22:13:00,
2013-08-22 15:53:00,80.0,47.0,-100.00,WNW,302,4.0,8.0,32,0.00,,,0.00,655.000000,,2013-08-22 22:53:00,
2013-08-22 16:02:00,80.0,47.0,-100.00,WNW,302,4.0,8.0,32,0.00,,,0.00,655.000000,,2013-08-22 23:02:00,
2013-08-22 16:11:00,80.0,47.0,-100.00,WNW,302,4.0,8.0,32,0.00,,,0.00,655.000000,,2013-08-22 23:11:00,
2013-08-22 16:22:00,80.0,47.0,-100.00,WNW,302,4.0,8.0,32,0.00,,,0.00,655.000000,,2013-08-22 23:22:00,
2013-08-22 19:52:00,70.0,45.0,-100.00,NNW,330,0.0,5.0,40,-99.99,,,0.00,74.000000,,2013-08-23 02:52:00,
2013-08-22 20:02:00,70.0,45.0,-100.00,NNW,330,0.0,5.0,40,-99.99,,,0.00,74.000000,,2013-08-23 03:02:00,
2013-08-22 20:11:00,70.0,45.0,-100.00,NNW,330,0.0,5.0,40,-99.99,,,0.00,74.000000,,2013-08-23 03:11:00,
2013-08-22 20:22:00,70.0,45.0,-100.00,NNW,330,0.0,5.0,40,-99.99,,,0.00,74.000000,,2013-08-23 03:22:00,
2013-08-22 20:24:00,67.0,46.0,-100.00,SE,130,3.0,6.0,47,0.00,,,0.00,24.000000,,2013-08-23 03:24:00,
2013-08-22 20:55:00,67.0,46.0,-100.00,SE,130,3.0,6.0,47,0.00,,,0.00,24.000000,,2013-08-23 03:55:00,
2013-08-22 21:04:00,67.0,46.0,-100.00,SE,130,3.0,6.0,47,0.00,,,0.00,24.000000,,2013-08-23 04:04:00,
2013-08-22 21:13:00,67.0,46.0,-100.00,SE,130,3.0,6.0,47,0.00,,,0.00,24.000000,,2013-08-23 04:13:00,
2013-08-22 21:54:00,66.0,44.0,-100.00,ESE,121,3.0,7.0,45,0.00,,,0.00,0.000000,,2013-08-23 04:54:00,
2013-08-22 22:03:00,66.0,44.0,-100.00,ESE,121,3.0,7.0,45,0.00,,,0.00,0.000000,,2013-08-23 05:03:00,
2013-08-22 22:13:00,66.0,44.0,-100.00,ESE,121,3.0,7.0,45,0.00,,,0.00,0.000000,,2013-08-23 05:13:00,
2013-08-22 22:22:00,66.0,44.0,-100.00,ESE,121,3.0,7.0,45,0.00,,,0.00,0.000000,,2013-08-23 05:22:00,
2013-08-22 22:52:00,64.0,45.0,-100.00,ESE,121,5.0,7.0,51,0.00,,,0.00,0.000000,,2013-08-23 05:52:00,
2013-08-22 23:02:00,64.0,45.0,-100.00,ESE,121,5.0,7.0,51,0.00,,,0.00,0.000000,,2013-08-23 06:02:00,
2013-08-22 23:12:00,64.0,45.0,-100.00,ESE,121,5.0,7.0,51,0.00,,,0.00,0.000000,,2013-08-23 06:12:00,
2013-08-22 23:21:00,64.0,45.0,-100.00,ESE,121,5.0,7.0,51,0.00,,,0.00,0.000000,,2013-08-23 06:21:00,
2013-08-22 23:52:00,64.0,45.0,-100.00,ESE,116,4.0,6.0,51,0.00,,,0.00,0.000000,,2013-08-23 06:52:00,